LiveATC.Net - Listen to live air traffic control over the Internet! Contact LiveATC.net for advertising information

Find LiveATC Audio Streams


Airport/ARTCC Code

Frequency
(e.g., 124.400, 128.75)
Site-wide search

Browse LiveATC Feeds
LiveATC Coverage Map
Top 50 LiveATC Feeds
Bad Weather Areas

LiveATC FAQ
Offer a LiveATC Feed
Contact LiveATC.net
Press Inquiries

LiveATC on iPhone
LiveATC on Android

LiveATC Mobile
(Mobile browser)

ATC Audio Archives
Interesting Recordings

LiveATC Forums

Home Page
About LiveATC.net
Make a Donation
LiveATC Bookstore

Terms of Use
Privacy Policy

ATC/Radar Sites
U.S. ARTCC Freqs
Canadian Air Freqs

AIRMETs/SIGMETs

FAA Airport Status
Nat'l Airspace Status
Arrival Demand Charts


Server Software By:
Icecast.org
Liquidsoap

U.S. Feeds: Class B Airports | Class C Airports | Class D/Other Airports | ARTCC (Centers)
International Feeds: Canada | Europe | Oceania | Asia | South America | North & Central America | Africa
Misc Feeds: HF Feeds
All Feeds: All Feeds
Search by ICAO/IATA airport code:   (e.g., kbos, kjfk, lax, eham, etc.)


Currently Available Live Feeds: 1009
Status Updated: Thu Oct 23 2014 08:44:01 UTC


NOTICE

Unauthorized use prohibited. See LiveATC.net Terms of Service

ATC Facility
ATC Radio Frequencies

North and Central America Airport Feeds

 

MDSD Twr/App/Control
Santo Domingo, Dominican Republic

Feed Status: DOWN
Offline since: 2014-01-28 03:44:04 UTC
MDSD 230800Z 06006KT 9999 FEW018 23/22 Q1011 NOSIG

Americas Approach: 119.300
Americas Tower: 118.100
Higuero Tower: 118.900
Santo Domingo Control (North): 124.300
Santo Domingo Control (South): 127.800
Santo Domingo Information: 126.900

MMAN Tower (Archives)
Monterrey, Mexico

Feed Status: UP

Click on your favorite media player to listen:
Listen with WinAmp to MMAN Tower  Listen with iTunes to MMAN Tower  Click here to listen if using Real Player  Click here to listen if using Windows Media Player

Or simply listen in your browser:

Listen right in your browser(in browser, requires Flash)

MMAN 230441Z 14005KT 3SM RA OVC025 21/21 A3012 RMK 60205 8/5//

MMAN Flight Activity (Flightaware)

Listeners: 2 out of 3372 total

Monterrey Tower: 118.600

MMCL Twr/App/Center
Culiacan, Mexico

Feed Status: DOWN
Offline since: 2014-07-01 06:50:03 UTC
MMCL 230540Z 00000KT 10SM BKN200 27/21 A2986 RMK SLP102 52010 916 8/008 HZY

Culiacan Approach: 119.750
Culiacan Tower: 118.500
Mazatlan Center: 128.000
Mazatlan Center: 124.400
Mazatlan Center: 128.300
Mazatlan Center: 124.200

MMGL Twr/App (Archives)
Guadalajara, Mexico

Feed Status: UP

Click on your favorite media player to listen:
Listen with WinAmp to MMGL Twr/App  Listen with iTunes to MMGL Twr/App  Click here to listen if using Real Player  Click here to listen if using Windows Media Player

Or simply listen in your browser:

Listen right in your browser(in browser, requires Flash)

MMGL 230746Z 00000KT 10SM BKN080 18/15 A3015 RMK 8/050

MMGL Flight Activity (Flightaware)

Listeners: 6 out of 3372 total

Guadalajara Approach: 120.800
Guadalajara Tower: 118.100

MMLP Twr/App/Center
La Paz, Mexico

Feed Status: DOWN
Offline since: 2014-04-30 02:30:03 UTC
MMLP 230441Z 15005KT 10SM SCT045 23/17 A2990 RMK 8/500

La Paz Approach: 120.600
La Paz Tower: 118.100
Los Cabos Approach: 120.900
Mazatlan Center: 128.000
Mazatlan Center: 124.400
Mazatlan Center: 128.300
Mazatlan Center: 124.200
Mazatlan Center: 126.300

MMMD Tower/Approach (Archives)
Merida, Mexico

Feed Status: UP

Click on your favorite media player to listen:
Listen with WinAmp to MMMD Tower/Approach   Listen with iTunes to MMMD Tower/Approach   Click here to listen if using Real Player  Click here to listen if using Windows Media Player

Or simply listen in your browser:

Listen right in your browser(in browser, requires Flash)

MMMD 230746Z 00000KT 6SM FEW005 SCT300 23/23 A2978 RMK 8/508

MMMD Flight Activity (Flightaware)

Listeners: 2 out of 3372 total

Merida Approach: 121.200
Merida Tower: 118.300

MMMX Approach (Archives)
Mexico City, Mexico

Feed Status: UP

Click on your favorite media player to listen:
Listen with WinAmp to MMMX Approach  Listen with iTunes to MMMX Approach  Click here to listen if using Real Player  Click here to listen if using Windows Media Player

Or simply listen in your browser:

Listen right in your browser(in browser, requires Flash)

MMMX 230746Z 02005KT 15SM FEW020 BKN080 14/10 A3032 NOSIG RMK 8/530

MMMX Flight Activity (Flightaware)

Listeners: 6 out of 3372 total

Mexico City Approach: 121.200

MMMY Tower/Approach (Archives)
Monterrey, Mexico

Feed Status: UP

Click on your favorite media player to listen:
Listen with WinAmp to MMMY Tower/Approach  Listen with iTunes to MMMY Tower/Approach  Click here to listen if using Real Player  Click here to listen if using Windows Media Player

Or simply listen in your browser:

Listen right in your browser(in browser, requires Flash)

MMMY 230740Z 11004KT 4SM SCT010 OVC020 21/20 A3006 RMK 60025 8/5// -RAE25

MMMY Flight Activity (Flightaware)

Listeners: 2 out of 3372 total

Monterrey Approach/Departure: 119.750
Monterrey Tower: 118.100

MMPB Tower (Archives)
Puebla, Mexico

Feed Status: UP

Click on your favorite media player to listen:
Listen with WinAmp to MMPB Tower  Listen with iTunes to MMPB Tower  Click here to listen if using Real Player  Click here to listen if using Windows Media Player

Or simply listen in your browser:

Listen right in your browser(in browser, requires Flash)

MMPB 230442Z 35006KT 9SM SCT015 BKN090 OVC220 13/10 A3032 RMK 8/537

MMPB Flight Activity (Flightaware)

Listeners: 2 out of 3372 total

Puebla Tower: 118.200

MMPB Tower/Approach
Puebla, Mexico

Feed Status: DOWN
Offline since: 2014-08-16 02:28:03 UTC
MMPB 230442Z 35006KT 9SM SCT015 BKN090 OVC220 13/10 A3032 RMK 8/537

AeroMexico Ops: 131.000
Mexico Approach: 121.200
Mexico Approach (East): 120.500
Mexico Center: 128.000
Puebla Tower/Approach: 118.200
Toluca Approach: 129.600

MMSP Twr/App/Center
San Luis Potosi, Mexico

Feed Status: DOWN
Offline since: 2013-01-03 03:26:05 UTC
MMSP 230746Z 07004KT 10SM SCT010 OVC020 15/11 A3026 RMK 8/5//

Mexico Center (Sector 6): 126.000
Mexico Center (Sector 7): 123.900
Potosi Tower/App: 118.900

MMTC Torreon, Mexico (Archives)
Torreon, Mexico

Feed Status: UP

Click on your favorite media player to listen:
Listen with WinAmp to MMTC Torreon, Mexico  Listen with iTunes to MMTC Torreon, Mexico  Click here to listen if using Real Player  Click here to listen if using Windows Media Player

Or simply listen in your browser:

Listen right in your browser(in browser, requires Flash)

MMTC 230640Z 30004KT 8SM -RA BKN030 BKN100 BKN200 20/16 A3013 RMK 8/572 CB VC OCNL LTGIC -RA CONT

MMTC Flight Activity (Flightaware)

Listeners: 2 out of 3372 total

Mazatlan Center: 124.200
Mazatlan Center: 124.400
Mazatlan Center: 128.000
Mexico Center: 123.900
Monterrey Center: 125.600
Monterrey Center: 125.425
Monterrey Center: 127.400
Torreon Approach: 119.500
Torreon Tower: 118.500

MMUN Twr/App/Center (Archives)
Cancun, Mexico

Feed Status: UP

Click on your favorite media player to listen:
Listen with WinAmp to MMUN Twr/App/Center  Listen with iTunes to MMUN Twr/App/Center  Click here to listen if using Real Player  Click here to listen if using Windows Media Player

Or simply listen in your browser:

Listen right in your browser(in browser, requires Flash)

MMMD 230746Z 00000KT 6SM FEW005 SCT300 23/23 A2978 RMK 8/508

MMMD Flight Activity (Flightaware)

Listeners: 2 out of 3372 total

Cancun Approach: 123.400
Cancun Departure: 119.800
Cancun Tower (North): 118.100
Cancun Tower (South): 118.600
Merida Center: 125.200
Merida Center: 128.200

TBPB Gnd/Twr/App/Center
Bridgetown, Barbados

Feed Status: DOWN
Offline since: 2014-10-19 15:06:02 UTC
TBPB 230800Z 09020KT 9999 VCTS SCT012CB SCT035 26/23 Q1011 NOSIG

Adams Approach: 129.350
Adams Arrival/Departure: 121.200
Adams Arrival/Departure: 120.700
Adams Arrival/Departure: 128.850
Adams Ground: 121.900
Adams Tower: 118.700
Emergency/Guard: 121.500
Piarco Center: 126.500
Piarco Center: 125.400
Piarco Center: 123.700
Piarco Center: 133.100

NOTE: Part-time feed up during peak hours only (1700-2200Z)
See: FlightTracker2.com for more info

TNCM Tower/Misc
Philipsburg, Saint Martin

Feed Status: DOWN
Offline since: 2014-10-22 20:52:03 UTC
TNCM 230700Z 08007KT 050V120 9999 -SHRA SCT018 28/24 Q1012 A2991

Juliana Approach (only when busy): 128.950
Juliana Tower (TNCM): 118.700
Lloyd Tower (TQPF/Anguilla): 118.500

NOTE: Feed up from 1100-2200Z

Bermuda Tower/Ground (Archives)
Hamilton, Bermuda

Feed Status: UP

Click on your favorite media player to listen:
Listen with WinAmp to Bermuda Tower/Ground  Listen with iTunes to Bermuda Tower/Ground  Click here to listen if using Real Player  Click here to listen if using Windows Media Player

Or simply listen in your browser:

Listen right in your browser(in browser, requires Flash)

TXKF 230755Z 19015KT 9999 BKN010 BKN100 BKN300 24/23 Q1010 RMK WND EST 

TXKF Flight Activity (Flightaware)

Listeners: 4 out of 3372 total

Bermuda CTAF: 122.800
Bermuda Ground/Clearance: 124.500
Bermuda Tower: 118.100

ZNY Bermuda Sector (Archives)
Hamilton, Bermuda

Feed Status: UP

Click on your favorite media player to listen:
Listen with WinAmp to ZNY Bermuda Sector  Listen with iTunes to ZNY Bermuda Sector  Click here to listen if using Real Player  Click here to listen if using Windows Media Player

Or simply listen in your browser:

Listen right in your browser(in browser, requires Flash)

TXKF 230755Z 19015KT 9999 BKN010 BKN100 BKN300 24/23 Q1010 RMK WND EST 

TXKF Flight Activity (Flightaware)

Listeners: 2 out of 3372 total

New York Approach (Bermuda Sector) : 119.100
New York Center (Bermuda Sector): 128.500

MGGT Gnd/Twr (Archives)
Guatemala City, Guatemala

Feed Status: UP

Click on your favorite media player to listen:
Listen with WinAmp to MGGT Gnd/Twr  Listen with iTunes to MGGT Gnd/Twr  Click here to listen if using Real Player  Click here to listen if using Windows Media Player

Or simply listen in your browser:

Listen right in your browser(in browser, requires Flash)

MGGT 230800Z 19006KT 3000 BR SCT004 BKN012 17/17 Q1022 A3018

MGGT Flight Activity (Flightaware)

Listeners: 2 out of 3372 total

Guatemala City Ground: 121.900
Guatemala City Tower: 118.100

MGGT Ground (Archives)
Guatemala City, Guatemala

Feed Status: UP

Click on your favorite media player to listen:
Listen with WinAmp to MGGT Ground  Listen with iTunes to MGGT Ground  Click here to listen if using Real Player  Click here to listen if using Windows Media Player

Or simply listen in your browser:

Listen right in your browser(in browser, requires Flash)

MGGT 230800Z 19006KT 3000 BR SCT004 BKN012 17/17 Q1022 A3018

MGGT Flight Activity (Flightaware)

Listeners: 3 out of 3372 total

Guatemala City Ground: 121.900

MGGT Tower (Archives)
Guatemala City, Guatemala

Feed Status: UP

Click on your favorite media player to listen:
Listen with WinAmp to MGGT Tower  Listen with iTunes to MGGT Tower  Click here to listen if using Real Player  Click here to listen if using Windows Media Player

Or simply listen in your browser:

Listen right in your browser(in browser, requires Flash)

MGGT 230800Z 19006KT 3000 BR SCT004 BKN012 17/17 Q1022 A3018

MGGT Flight Activity (Flightaware)

Listeners: 3 out of 3372 total

Guatemala City Tower: 118.100

MHTG Gnd/Twr/App/Ctr/Ops (Archives)
Tegucigalpa, Honduras

Feed Status: UP

Click on your favorite media player to listen:
Listen with WinAmp to MHTG Gnd/Twr/App/Ctr/Ops  Listen with iTunes to MHTG Gnd/Twr/App/Ctr/Ops  Click here to listen if using Real Player  Click here to listen if using Windows Media Player

Or simply listen in your browser:

Listen right in your browser(in browser, requires Flash)

MHTG 230600Z 14003KT 9999 FEW014 BKN028 20/19 Q1017 A3003 NOSIG

MHTG Flight Activity (Flightaware)

Listeners: 2 out of 3372 total

American Airlines Ops: 130.700
ARINC ACARS: 131.550
Cenamer Center: 123.900
Cenamer Center: 124.300
Cenamer Center: 124.100
CMP Ops: 129.925
Continental Airlines Ops: 129.925
FAH Ground: 122.900
Taca Ops: 131.300
Taca Ops Sal: 130.300
Tecnologias Unidas: 133.000
Tegucigalpa RDO: 126.700
Toncontin Approach: 119.100
Toncontin Ground: 121.900
Toncontin Tower: 118.700

MPTO Twr/App/Control (Archives)
Panama City, Panama

Feed Status: UP

Click on your favorite media player to listen:
Listen with WinAmp to MPTO Twr/App/Control  Listen with iTunes to MPTO Twr/App/Control  Click here to listen if using Real Player  Click here to listen if using Windows Media Player

Or simply listen in your browser:

Listen right in your browser(in browser, requires Flash)

MPTO 230800Z 00000KT 9999 FEW018 27/25 Q1009 NOSIG

MPTO Flight Activity (Flightaware)

Listeners: 4 out of 3372 total

Panama Approach: 121.200
Panama Control: 123.300
Panama Control: 133.300
Panama Departure: 119.700
Panama Tower: 118.100

MROC Del/Gnd/Twr/App/Center/Misc
San Jose, Costa Rica

Feed Status: DOWN
Offline since: 2014-10-23 03:38:03 UTC
MROC 230807Z 04002KT 9999 BCFG SCT010 20/19 A2998 NOSIG

ADS: 131.000
Aerodespacho Ops: 135.000
Central American Center (CENAMER Control): 124.100
Coco Center (Control over CR Airspace): 119.600
Coco Clearance Delivery: 121.300
Coco Ground: 121.900
Coco Terminal Control: 120.500
Coco Tower: 118.600
Coco UNICOM: 126.800
SYQ Ground: 121.700
SYQ Tower: 118.300

MROC

MROC Gnd/Twr/App/Center
San Jose, Costa Rica

Feed Status: DOWN
Offline since: 2013-07-05 06:48:03 UTC
MROC 230807Z 04002KT 9999 BCFG SCT010 20/19 A2998 NOSIG

Centamer Control: 124.100
Coco Center: 119.600
Coco Ground: 121.900
Coco Terminal Control: 120.500
Coco Tower: 118.600

Sponsored by: AviacionCR.net

MSSS Tower (Archives)
San Salvador, El Salvador

Feed Status: UP

Click on your favorite media player to listen:
Listen with WinAmp to MSSS Tower  Listen with iTunes to MSSS Tower  Click here to listen if using Real Player  Click here to listen if using Windows Media Player

Or simply listen in your browser:

Listen right in your browser(in browser, requires Flash)

MSSS 230550Z 13004KT CAVOK 21/20 Q1014 A2997

MSSS Flight Activity (Flightaware)

Listeners: 2 out of 3372 total

El Salvador Approach: 119.900
Ilopango Approach: 119.500
Ilopango Ground: 121.900
Ilopango Tower: 118.300

Please make a donation to help us keep growing!